Вернуться в каталог

STARLINK-2453

АктивенСвязьVLEO
NORAD 47845·PAYLOAD·🇺🇸 United States

Запущен Mar 11, 2021 с Cape Canaveral Space Force Station

Loading…

Ближайшие Пролёты (ближайшие 24 часа)

TLE

СвежийSource: CelesTrak SupGP

Эпоха: Sep 15, 2026, 01:40 UTC

1 47845C 21018BL  26258.06993056  .00025144  00000+0  80850-3 0  2588
2 47845  53.1576  97.2927 0001260  84.8140 214.5794 15.31692049    10

Отслеживайте STARLINK-2453 в реальном времени с AllMySat

Download on the App Store